SCOUT G-1 R/B, 17071

Orbit data source: Space-Track

SCOUT G-1 R/B, 17071 is space debris in LEO originally from a launch on Fri, 14 Nov 1986 UTC launched from the Air Force Western Test Range (AFWTR). Debris objects in space refer to the collection of defunct objects orbiting the Earth. Examples of debris include non-operational satellites, rocket bodies, and fragments generated from explosions, collisions, or faulty payload assembly.

Loading next visibility...
SCOUT G-1 R/B details
Identifier
17071, 1986-088B
Orbit
LEO
Last TLE update8 hours ago
Origin
Flag of USNASA LaRC (US)
ManufacturerThiokol/TE
MissionSpacecraft
Bus & MotorSTAR 20, Unknown motor
Mass31 kg wet, 31 kg dry
Launch date (UTC)
1986-11-14 (38 years ago)
Launch vehicleUnknown
Launch site
Air Force Western Test Range (AFWTR)
Object type
Payload
Rocket body
Debris
Shape & HBRCyl, 1.5 m
Radar Cross Section0.687 m², Medium (>0.1 m² and < 1m²)

Expand to show TLE details & history

TLE from 8 hours ago
0 SCOUT G-1 R/B
1 17071U 86088B   24361.54476094  .00000225  00000-0  22106-3 0  9994
2 17071  89.6037 189.6025 0040612  80.3969 280.1781 13.75487799911817
Epoch: 2024-12-26T13:04Z
Definitive object data (Epoch: 2024-12-26T13:04:27.345Z)
Latitude-0.00003°
Longitude-102.03406°
Altitude977.761 km
Speed7.365 km/s
True Right ascension12h 38m 24s
True Declination0° 00' 00"
Sunlit
Object was in daylight at TLE epoch
Visualization TLE readout
Latitude-49.32849°
Longitude78.41071°
Altitude1,024.915 km
Speed7.325 km/s
Apparent Right ascension04h 39m 06s
Apparent Declination-62° 38' 17"
Sunlit
Object is in daylight
Visualization observer readout
Local Sidereal Time20:32:50
Azimuth143.374° SSE
Elevation-48.974°
Doppler factor1
Orbital elements
Apogee altitude1,006.818 km
Perigee altitude947.077 km
Semi-major axis7,355.085 km
Eccentricity0.0040612
Inclination89.6037°
RAAN189.6025°
Arg. of periapsis80.3969°
True anomaly279.71964°
Mean anomaly280.1781°
Eccentric anomaly279.94891°
Mean motion3.44082 °/min
BSTAR0.00022106
Orbital period104.63 mins
Loading maneuver chart data...
Loading historical data...
Loading historical data...
Loading historical data...
Loading historical data...
Loading historical data...
Loading historical data...
Loading historical data...

SCOUT G-1 R/B Visibility forecast

Observer location: undefined°, undefined

Span
Click to sort rows by Start time (UTC) header in descending order
Start Az.
Max El. time (UTC)
Max El. Az.
Max El.
End time (UTC)
End Az.
9 mins2024-12-27 00:08:53.736Z28.474° NE2024-12-27 00:12:53.736Z75.507° E25.807°2024-12-27 00:17:53.736Z138.134° SSE
9 mins2024-12-27 01:53:53.736Z338.454° N2024-12-27 01:57:53.736Z280.859° WNW32.155°2024-12-27 02:02:53.736Z216.26° SW
6 mins2024-12-27 11:55:53.736Z106.62° ESE2024-12-27 11:58:53.736Z68.566° E20.036°2024-12-27 12:01:53.736Z34.799° NE
10 mins2024-12-27 13:37:53.736Z199.732° SSW2024-12-27 13:42:53.736Z284.882° WNW38.236°2024-12-27 13:47:53.736Z346.936° N
|